| time (UTC) | temp F | wind direction | speed knots | gust knots | rain 1hr in | rain 24hr in | rain mn in | humidity % | barometer mb |
| 20260903051525 | 81 | 232 | 1.7 | 1.7 | 0.00 | 0.00 | 0.00 | 84 | 1014.9 |
| 20260903051021 | 81 | 232 | 1.7 | 1.7 | 0.00 | 0.00 | 0.00 | 84 | 1014.7 |
| 20260903050520 | 81 | 211 | 2.6 | 2.6 | 0.00 | 0.00 | 0.00 | 83 | 1015.0 |
| 20260903050016 | 81 | 229 | 0.9 | 0.9 | 0.00 | 0.00 | 0.00 | 83 | 1014.9 |
| 20260903045510 | 0 | 0.0 | 0.0 | 0.00 | 0.00 | 0.00 | 1014.9 | ||
| 20260903045007 | 0 | 0.0 | 0.0 | 0.00 | 0.00 | 0.00 | 1014.7 | ||
| 20260903044503 | 0 | 0.0 | 0.0 | 0.00 | 0.00 | 0.00 | 1014.6 | ||
| 20260903043958 | 0 | 0.0 | 0.0 | 0.00 | 0.00 | 0.00 | 1014.8 | ||
| 20260903043454 | 0 | 0.0 | 0.0 | 0.00 | 0.00 | 0.00 | 1015.0 | ||
| 20260903042952 | 0 | 0.0 | 0.0 | 0.00 | 0.00 | 0.00 | 1014.8 | ||
| 20260903042447 | 0 | 0.0 | 0.0 | 0.00 | 0.00 | 0.00 | 1014.8 | ||
| 20260903041943 | 0 | 0.0 | 0.0 | 0.00 | 0.00 | 0.00 | 1014.6 | ||
| 20260903041439 | 0 | 0.0 | 0.0 | 0.00 | 0.00 | 0.00 | 1014.5 | ||
| 20260903040935 | 83 | 227 | 3.5 | 4.3 | 0.00 | 0.00 | 0.00 | 79 | 1014.6 |
| 20260903040434 | 83 | 227 | 3.5 | 4.3 | 0.00 | 0.00 | 0.00 | 79 | 1014.5 |
| 20260903035930 | 83 | 227 | 3.5 | 4.3 | 0.00 | 0.00 | 0.00 | 79 | 1014.4 |
| 20260903035425 | 83 | 227 | 3.5 | 4.3 | 0.00 | 0.00 | 0.00 | 79 | 1014.4 |
| 20260903034920 | 83 | 227 | 3.5 | 4.3 | 0.00 | 0.00 | 0.00 | 79 | 1014.4 |
| 20260903034415 | 83 | 227 | 3.5 | 4.3 | 0.00 | 0.00 | 0.00 | 79 | 1014.2 |
| 20260903033910 | 83 | 227 | 3.5 | 4.3 | 0.00 | 0.00 | 0.00 | 79 | 1014.6 |
| 20260903033406 | 83 | 227 | 3.5 | 4.3 | 0.00 | 0.00 | 0.00 | 79 | 1014.5 |
| 20260903032906 | 83 | 227 | 3.5 | 4.3 | 0.00 | 0.00 | 0.00 | 79 | 1014.3 |
| 20260903032401 | 83 | 227 | 3.5 | 4.3 | 0.00 | 0.00 | 0.00 | 79 | 1014.5 |
| 20260903031856 | 83 | 227 | 3.5 | 4.3 | 0.00 | 0.00 | 0.00 | 79 | 1014.7 |
| 20260903031355 | 83 | 227 | 3.5 | 4.3 | 0.00 | 0.00 | 0.00 | 79 | 1014.8 |
| 20260903030851 | 83 | 218 | 6.1 | 7.0 | 0.00 | 0.00 | 0.00 | 79 | 1014.8 |
| 20260903030347 | 83 | 226 | 2.6 | 2.6 | 0.00 | 0.00 | 0.00 | 79 | 1014.8 |
| 20260903025843 | 83 | 195 | 4.3 | 6.1 | 0.00 | 0.00 | 0.00 | 79 | 1014.9 |
| 20260903025338 | 83 | 212 | 2.6 | 4.3 | 0.00 | 0.00 | 0.00 | 79 | 1015.1 |
| 20260903024837 | 83 | 230 | 2.6 | 4.3 | 0.00 | 0.00 | 0.00 | 79 | 1015.3 |
| 20260903024332 | 83 | 233 | 3.5 | 5.2 | 0.00 | 0.00 | 0.00 | 79 | 1014.9 |
| 20260903023827 | 83 | 219 | 5.2 | 6.1 | 0.00 | 0.00 | 0.00 | 80 | 1015.1 |
| 20260903023323 | 83 | 245 | 5.2 | 7.0 | 0.00 | 0.00 | 0.00 | 80 | 1015.1 |
| 20260903022818 | 83 | 239 | 2.6 | 5.2 | 0.00 | 0.00 | 0.00 | 80 | 1015.1 |
| 20260903022317 | 83 | 215 | 4.3 | 5.2 | 0.00 | 0.00 | 0.00 | 80 | 1015.1 |
| 20260903021817 | 83 | 206 | 4.3 | 8.7 | 0.00 | 0.00 | 0.00 | 79 | 1015.1 |
| 20260903021313 | 83 | 215 | 3.5 | 5.2 | 0.00 | 0.00 | 0.00 | 79 | 1015.2 |
| 20260903020812 | 84 | 222 | 2.6 | 2.6 | 0.00 | 0.00 | 0.00 | 79 | 1015.0 |
| 20260903020307 | 84 | 194 | 2.6 | 4.3 | 0.00 | 0.00 | 0.00 | 78 | 1015.1 |
| 20260903015802 | 84 | 216 | 2.6 | 6.1 | 0.00 | 0.00 | 0.00 | 78 | 1014.9 |
| 20260903015258 | 84 | 196 | 2.6 | 2.6 | 0.00 | 0.00 | 0.00 | 78 | 1015.2 |
| 20260903014753 | 84 | 223 | 2.6 | 4.3 | 0.00 | 0.00 | 0.00 | 78 | 1015.2 |
| 20260903014253 | 84 | 209 | 3.5 | 4.3 | 0.00 | 0.00 | 0.00 | 77 | 1015.0 |
| 20260903013748 | 84 | 222 | 1.7 | 4.3 | 0.00 | 0.00 | 0.00 | 77 | 1015.1 |
| 20260903013247 | 84 | 238 | 3.5 | 5.2 | 0.00 | 0.00 | 0.00 | 77 | 1015.1 |
| 20260903012745 | 84 | 228 | 3.5 | 5.2 | 0.00 | 0.00 | 0.00 | 76 | 1014.8 |
| 20260903012246 | 84 | 204 | 5.2 | 7.8 | 0.00 | 0.00 | 0.00 | 76 | 1015.2 |
| 20260903011746 | 85 | 226 | 4.3 | 5.2 | 0.00 | 0.00 | 0.00 | 76 | 1015.0 |
| 20260903011245 | 85 | 230 | 2.6 | 4.3 | 0.00 | 0.00 | 0.00 | 76 | 1015.0 |
| 20260903010741 | 85 | 210 | 2.6 | 4.3 | 0.00 | 0.00 | 0.00 | 76 | 1014.9 |
| 20260903010235 | 85 | 231 | 3.5 | 6.1 | 0.00 | 0.00 | 0.00 | 76 | 1015.0 |
| 20260903005734 | 85 | 235 | 4.3 | 6.1 | 0.00 | 0.00 | 0.00 | 75 | 1014.9 |
| 20260903005223 | 85 | 223 | 2.6 | 2.6 | 0.00 | 0.00 | 0.00 | 75 | 1014.9 |
| 20260903004719 | 85 | 238 | 3.5 | 5.2 | 0.00 | 0.00 | 0.00 | 75 | 1014.7 |
| 20260903004214 | 85 | 228 | 2.6 | 2.6 | 0.00 | 0.00 | 0.00 | 75 | 1014.9 |
| 20260903003709 | 86 | 203 | 1.7 | 2.6 | 0.00 | 0.00 | 0.00 | 74 | 1014.6 |
| 20260903003204 | 86 | 209 | 4.3 | 5.2 | 0.00 | 0.00 | 0.00 | 73 | 1014.4 |
| 20260903002654 | 86 | 220 | 2.6 | 5.2 | 0.00 | 0.00 | 0.00 | 73 | 1014.5 |
| 20260903002153 | 86 | 204 | 1.7 | 2.6 | 0.00 | 0.00 | 0.00 | 73 | 1014.7 |
| 20260903001649 | 86 | 225 | 2.6 | 2.6 | 0.00 | 0.00 | 0.00 | 72 | 1014.6 |
| 20260903001143 | 86 | 243 | 3.5 | 4.3 | 0.00 | 0.00 | 0.00 | 72 | 1014.6 |
| 20260903000639 | 87 | 236 | 3.5 | 4.3 | 0.00 | 0.00 | 0.00 | 71 | 1014.6 |
| 20260903000137 | 87 | 217 | 2.6 | 2.6 | 0.00 | 0.00 | 0.00 | 71 | 1014.8 |
| 20260902235636 | 87 | 225 | 2.6 | 2.6 | 0.00 | 0.00 | 0.00 | 70 | 1014.7 |
| 20260902235133 | 87 | 200 | 5.2 | 6.1 | 0.00 | 0.00 | 0.00 | 70 | 1014.5 |
| 20260902234632 | 88 | 224 | 3.5 | 4.3 | 0.00 | 0.00 | 0.00 | 69 | 1014.5 |
| 20260902234131 | 88 | 224 | 3.5 | 4.3 | 0.00 | 0.00 | 0.00 | 69 | 1014.7 |
| 20260902233626 | 88 | 202 | 0.9 | 5.2 | 0.00 | 0.00 | 0.00 | 69 | 1014.4 |
| 20260902233126 | 88 | 211 | 3.5 | 4.3 | 0.00 | 0.00 | 0.00 | 68 | 1014.7 |
| 20260902232626 | 88 | 220 | 4.3 | 6.1 | 0.00 | 0.00 | 0.00 | 68 | 1014.4 |
| 20260902232124 | 89 | 230 | 3.5 | 6.1 | 0.00 | 0.00 | 0.00 | 67 | 1014.4 |
| 20260902231619 | 89 | 186 | 3.5 | 5.2 | 0.00 | 0.00 | 0.00 | 67 | 1014.6 |
| 20260902231119 | 89 | 222 | 1.7 | 1.7 | 0.00 | 0.00 | 0.00 | 67 | 1014.6 |
| 20260902230614 | 89 | 233 | 1.7 | 1.7 | 0.00 | 0.00 | 0.00 | 66 | 1014.5 |
| 20260902230112 | 90 | 260 | 4.3 | 5.2 | 0.00 | 0.00 | 0.00 | 65 | 1014.7 |
| 20260902225608 | 90 | 277 | 4.3 | 8.7 | 0.00 | 0.00 | 0.00 | 65 | 1014.7 |
| 20260902225108 | 90 | 238 | 2.6 | 2.6 | 0.00 | 0.00 | 0.00 | 65 | 1014.6 |
| 20260902224606 | 90 | 316 | 5.2 | 7.0 | 0.00 | 0.00 | 0.00 | 63 | 1014.6 |
| 20260902224057 | 90 | 202 | 4.3 | 7.0 | 0.00 | 0.00 | 0.00 | 63 | 1014.7 |
| 20260902223553 | 90 | 219 | 6.1 | 8.7 | 0.00 | 0.00 | 0.00 | 63 | 1014.6 |
| 20260902223052 | 90 | 229 | 2.6 | 8.7 | 0.00 | 0.00 | 0.00 | 63 | 1014.6 |
| 20260902222551 | 91 | 179 | 2.6 | 7.8 | 0.00 | 0.00 | 0.00 | 62 | 1014.7 |
| 20260902222049 | 91 | 221 | 2.6 | 8.7 | 0.00 | 0.00 | 0.00 | 62 | 1014.8 |
| 20260902221544 | 91 | 198 | 5.2 | 6.1 | 0.00 | 0.00 | 0.00 | 62 | 1014.7 |
| 20260902221039 | 91 | 223 | 3.5 | 7.8 | 0.00 | 0.00 | 0.00 | 61 | 1014.8 |
| 20260902220535 | 91 | 199 | 9.6 | 11.3 | 0.00 | 0.00 | 0.00 | 60 | 1014.8 |
| 20260902220035 | 92 | 228 | 5.2 | 6.1 | 0.00 | 0.00 | 0.00 | 60 | 1014.8 |
| 20260902215531 | 92 | 238 | 0.9 | 1.7 | 0.00 | 0.00 | 0.00 | 60 | 1014.6 |
| 20260902215026 | 92 | 266 | 5.2 | 6.1 | 0.00 | 0.00 | 0.00 | 60 | 1014.6 |
| 20260902214526 | 92 | 222 | 6.1 | 7.0 | 0.00 | 0.00 | 0.00 | 59 | 1014.6 |
| 20260902214025 | 92 | 246 | 2.6 | 4.3 | 0.00 | 0.00 | 0.00 | 59 | 1014.8 |
| 20260902213521 | 92 | 226 | 5.2 | 7.0 | 0.00 | 0.00 | 0.00 | 58 | 1014.8 |
| 20260902213020 | 92 | 226 | 5.2 | 7.0 | 0.00 | 0.00 | 0.00 | 58 | 1014.7 |
| 20260902212516 | 92 | 213 | 5.2 | 7.0 | 0.00 | 0.00 | 0.00 | 59 | 1014.7 |
| 20260902212012 | 92 | 216 | 5.2 | 6.1 | 0.00 | 0.00 | 0.00 | 59 | 1014.6 |
| 20260902211508 | 92 | 216 | 5.2 | 6.1 | 0.00 | 0.00 | 0.00 | 59 | 1014.6 |
| 20260902211003 | 92 | 216 | 5.2 | 6.1 | 0.00 | 0.00 | 0.00 | 59 | 1014.7 |
| 20260902210503 | 92 | 216 | 5.2 | 6.1 | 0.00 | 0.00 | 0.00 | 59 | 1014.7 |
| 20260902210001 | 92 | 184 | 10.4 | 13.0 | 0.00 | 0.00 | 0.00 | 62 | 1015.1 |
| 20260902205456 | 92 | 184 | 10.4 | 13.0 | 0.00 | 0.00 | 0.00 | 62 | 1014.9 |
| 20260902204952 | 92 | 184 | 10.4 | 13.0 | 0.00 | 0.00 | 0.00 | 62 | 1014.9 |
| 20260902204451 | 93 | 236 | 7.8 | 11.3 | 0.00 | 0.00 | 0.00 | 61 | 1014.9 |
| 20260902203946 | 93 | 236 | 7.8 | 11.3 | 0.00 | 0.00 | 0.00 | 61 | 1014.8 |
| 20260902203442 | 93 | 236 | 7.8 | 11.3 | 0.00 | 0.00 | 0.00 | 61 | 1015.1 |
| 20260902202940 | 93 | 236 | 7.8 | 11.3 | 0.00 | 0.00 | 0.00 | 61 | 1015.3 |
| 20260902202437 | 93 | 236 | 7.8 | 11.3 | 0.00 | 0.00 | 0.00 | 61 | 1015.3 |
| 20260902201934 | 93 | 236 | 7.8 | 11.3 | 0.00 | 0.00 | 0.00 | 61 | 1015.3 |
| 20260902201429 | 92 | 224 | 3.5 | 4.3 | 0.00 | 0.00 | 0.00 | 63 | 1015.2 |
| 20260902200928 | 92 | 224 | 3.5 | 4.3 | 0.00 | 0.00 | 0.00 | 63 | 1015.5 |
| 20260902200423 | 92 | 224 | 3.5 | 4.3 | 0.00 | 0.00 | 0.00 | 63 | 1015.5 |
| 20260902195919 | 92 | 224 | 3.5 | 4.3 | 0.00 | 0.00 | 0.00 | 63 | 1015.6 |
| 20260902195414 | 92 | 224 | 3.5 | 4.3 | 0.00 | 0.00 | 0.00 | 63 | 1015.5 |
| 20260902194908 | 92 | 224 | 3.5 | 4.3 | 0.00 | 0.00 | 0.00 | 63 | 1015.4 |
| 20260902194408 | 0 | 0.0 | 0.0 | 0.00 | 0.00 | 0.00 | 1015.6 | ||
| 20260902193903 | 0 | 0.0 | 0.0 | 0.00 | 0.00 | 0.00 | 1015.8 | ||
| 20260902193359 | 93 | 214 | 2.6 | 2.6 | 0.00 | 0.00 | 0.00 | 61 | 1015.7 |
| 20260902192858 | 93 | 214 | 2.6 | 2.6 | 0.00 | 0.00 | 0.00 | 61 | 1015.8 |
| 20260902192357 | 93 | 214 | 2.6 | 2.6 | 0.00 | 0.00 | 0.00 | 61 | 1016.0 |
| 20260902191851 | 93 | 214 | 2.6 | 2.6 | 0.00 | 0.00 | 0.00 | 61 | 1016.1 |
| 20260902191346 | 93 | 214 | 2.6 | 2.6 | 0.00 | 0.00 | 0.00 | 61 | 1016.0 |
| 20260902190836 | 93 | 214 | 2.6 | 2.6 | 0.00 | 0.00 | 0.00 | 61 | 1016.0 |
| 20260902190335 | 93 | 214 | 2.6 | 2.6 | 0.00 | 0.00 | 0.00 | 61 | 1016.2 |
| 20260902185831 | 93 | 214 | 2.6 | 2.6 | 0.00 | 0.00 | 0.00 | 61 | 1016.1 |
| 20260902185327 | 93 | 214 | 2.6 | 2.6 | 0.00 | 0.00 | 0.00 | 61 | 1016.2 |
| 20260902184822 | 93 | 214 | 2.6 | 2.6 | 0.00 | 0.00 | 0.00 | 61 | 1016.2 |
| 20260902184317 | 93 | 214 | 2.6 | 2.6 | 0.00 | 0.00 | 0.00 | 61 | 1016.0 |
| 20260902183813 | 93 | 214 | 2.6 | 2.6 | 0.00 | 0.00 | 0.00 | 61 | 1016.1 |
| 20260902183309 | 92 | 263 | 7.0 | 7.8 | 0.00 | 0.00 | 0.00 | 62 | 1016.2 |
| 20260902182804 | 92 | 263 | 7.0 | 7.8 | 0.00 | 0.00 | 0.00 | 62 | 1016.4 |
| 20260902182256 | 92 | 263 | 7.0 | 7.8 | 0.00 | 0.00 | 0.00 | 62 | 1016.2 |
| 20260902181752 | 92 | 263 | 7.0 | 7.8 | 0.00 | 0.00 | 0.00 | 62 | 1016.6 |
| 20260902181252 | 92 | 263 | 7.0 | 7.8 | 0.00 | 0.00 | 0.00 | 62 | 1016.6 |
| 20260902180746 | 0 | 0.0 | 0.0 | 0.00 | 0.00 | 0.00 | 1016.4 | ||
| 20260902180242 | 0 | 0.0 | 0.0 | 0.00 | 0.00 | 0.00 | 1016.4 | ||
| 20260902175737 | 0 | 0.0 | 0.0 | 0.00 | 0.00 | 0.00 | 1016.3 | ||
| 20260902175233 | 0 | 0.0 | 0.0 | 0.00 | 0.00 | 0.00 | 1016.5 | ||
| 20260902174728 | 0 | 0.0 | 0.0 | 0.00 | 0.00 | 0.00 | 1016.7 | ||
| 20260902174224 | 0 | 0.0 | 0.0 | 0.00 | 0.00 | 0.00 | 1016.6 | ||
| 20260902173720 | 0 | 0.0 | 0.0 | 0.00 | 0.00 | 0.00 | 1017.0 | ||
| 20260902173220 | 0 | 0.0 | 0.0 | 0.00 | 0.00 | 0.00 | 1017.0 | ||
| 20260902172714 | 0 | 0.0 | 0.0 | 0.00 | 0.00 | 0.00 | 1017.2 | ||
| 20260902172214 | 0 | 0.0 | 0.0 | 0.00 | 0.00 | 0.00 | 1017.1 | ||
| 20260902171709 | 0 | 0.0 | 0.0 | 0.00 | 0.00 | 0.00 | 1017.1 | ||
| 20260902171205 | 0 | 0.0 | 0.0 | 0.00 | 0.00 | 0.00 | 1017.3 | ||
| 20260902170701 | 0 | 0.0 | 0.0 | 0.00 | 0.00 | 0.00 | 1017.3 | ||
| 20260902170155 | 0 | 0.0 | 0.0 | 0.00 | 0.00 | 0.00 | 1017.1 | ||
| 20260902165651 | 0 | 0.0 | 0.0 | 0.00 | 0.00 | 0.00 | 1017.4 | ||
| 20260902165150 | 0 | 0.0 | 0.0 | 0.00 | 0.00 | 0.00 | 1017.2 | ||
| 20260902164646 | 0 | 0.0 | 0.0 | 0.00 | 0.00 | 0.00 | 1017.4 | ||
| 20260902164144 | 0 | 0.0 | 0.0 | 0.00 | 0.00 | 0.00 | 1017.3 | ||
| 20260902163639 | 0 | 0.0 | 0.0 | 0.00 | 0.00 | 0.00 | 1017.4 | ||
| 20260902163139 | 0 | 0.0 | 0.0 | 0.00 | 0.00 | 0.00 | 1017.4 | ||
| 20260902162638 | 0 | 0.0 | 0.0 | 0.00 | 0.00 | 0.00 | 1017.3 | ||
| 20260902162133 | 0 | 0.0 | 0.0 | 0.00 | 0.00 | 0.00 | 1017.2 | ||
| 20260902161627 | 0 | 0.0 | 0.0 | 0.00 | 0.00 | 0.00 | 1017.3 | ||
| 20260902161123 | 0 | 0.0 | 0.0 | 0.00 | 0.00 | 0.00 | 1017.1 | ||
| 20260902160615 | 0 | 0.0 | 0.0 | 0.00 | 0.00 | 0.00 | 1017.3 | ||
| 20260902160109 | 84 | 213 | 3.5 | 5.2 | 0.00 | 0.00 | 0.00 | 79 | 1017.7 |
| 20260902155607 | 84 | 213 | 3.5 | 5.2 | 0.00 | 0.00 | 0.00 | 79 | 1017.2 |
| 20260902155106 | 84 | 213 | 3.5 | 5.2 | 0.00 | 0.00 | 0.00 | 79 | 1017.3 |
| 20260902154601 | 84 | 213 | 3.5 | 5.2 | 0.00 | 0.00 | 0.00 | 79 | 1017.4 |
| 20260902154056 | 84 | 213 | 3.5 | 5.2 | 0.00 | 0.00 | 0.00 | 79 | 1017.3 |
| 20260902153554 | 84 | 213 | 3.5 | 5.2 | 0.00 | 0.00 | 0.00 | 79 | 1017.4 |
| 20260902153050 | 84 | 213 | 3.5 | 5.2 | 0.00 | 0.00 | 0.00 | 79 | 1017.4 |
| 20260902152541 | 84 | 213 | 3.5 | 5.2 | 0.00 | 0.00 | 0.00 | 79 | 1017.3 |
| 20260902152036 | 84 | 213 | 3.5 | 5.2 | 0.00 | 0.00 | 0.00 | 79 | 1017.3 |
| 20260902151532 | 84 | 213 | 3.5 | 5.2 | 0.00 | 0.00 | 0.00 | 79 | 1017.3 |
| 20260902151031 | 84 | 213 | 3.5 | 5.2 | 0.00 | 0.00 | 0.00 | 79 | 1017.3 |
| 20260902150526 | 84 | 213 | 3.5 | 5.2 | 0.00 | 0.00 | 0.00 | 79 | 1017.2 |
| 20260902150022 | 84 | 204 | 4.3 | 6.1 | 0.00 | 0.00 | 0.00 | 80 | 1017.4 |
| 20260902145516 | 84 | 235 | 3.5 | 5.2 | 0.00 | 0.00 | 0.00 | 77 | 1017.4 |
| 20260902145011 | 84 | 235 | 3.5 | 5.2 | 0.00 | 0.00 | 0.00 | 77 | 1017.2 |
| 20260902144508 | 84 | 235 | 3.5 | 5.2 | 0.00 | 0.00 | 0.00 | 77 | 1017.0 |
| 20260902144008 | 84 | 235 | 3.5 | 5.2 | 0.00 | 0.00 | 0.00 | 77 | 1017.1 |
| 20260902143503 | 84 | 235 | 3.5 | 5.2 | 0.00 | 0.00 | 0.00 | 77 | 1017.1 |
| 20260902142958 | 84 | 235 | 3.5 | 5.2 | 0.00 | 0.00 | 0.00 | 77 | 1017.1 |
| 20260902142448 | 84 | 243 | 3.5 | 4.3 | 0.00 | 0.00 | 0.00 | 77 | 1017.1 |
| 20260902141948 | 83 | 151 | 3.5 | 5.2 | 0.00 | 0.00 | 0.00 | 77 | 1017.0 |
| 20260902141443 | 83 | 234 | 1.7 | 2.6 | 0.00 | 0.00 | 0.00 | 77 | 1017.2 |
| 20260902140938 | 83 | 227 | 3.5 | 5.2 | 0.00 | 0.00 | 0.00 | 77 | 1016.8 |
| 20260902140433 | 83 | 224 | 1.7 | 2.6 | 0.00 | 0.00 | 0.00 | 77 | 1017.2 |
| 20260902135933 | 82 | 209 | 0.9 | 5.2 | 0.00 | 0.00 | 0.00 | 79 | 1016.8 |
| 20260902135429 | 81 | 208 | 4.3 | 6.1 | 0.00 | 0.00 | 0.00 | 80 | 1017.0 |
| 20260902134927 | 81 | 217 | 5.2 | 7.0 | 0.00 | 0.00 | 0.00 | 80 | 1017.1 |
| 20260902134423 | 80 | 225 | 2.6 | 4.3 | 0.00 | 0.00 | 0.00 | 82 | 1017.1 |
| 20260902133918 | 80 | 213 | 0.9 | 2.6 | 0.00 | 0.00 | 0.00 | 83 | 1017.2 |
| 20260902133413 | 79 | 219 | 2.6 | 2.6 | 0.00 | 0.00 | 0.00 | 84 | 1017.2 |
| 20260902132908 | 78 | 225 | 1.7 | 1.7 | 0.00 | 0.00 | 0.00 | 87 | 1017.2 |
| 20260902132403 | 78 | 225 | 1.7 | 1.7 | 0.00 | 0.00 | 0.00 | 87 | 1016.8 |
| 20260902131858 | 78 | 225 | 1.7 | 1.7 | 0.00 | 0.00 | 0.00 | 87 | 1017.2 |
| 20260902131355 | 78 | 225 | 1.7 | 1.7 | 0.00 | 0.00 | 0.00 | 87 | 1017.2 |
| 20260902130854 | 78 | 225 | 1.7 | 1.7 | 0.00 | 0.00 | 0.00 | 87 | 1016.8 |
| 20260902130350 | 78 | 225 | 1.7 | 1.7 | 0.00 | 0.00 | 0.00 | 87 | 1017.2 |
| 20260902125844 | 78 | 225 | 1.7 | 1.7 | 0.00 | 0.00 | 0.00 | 87 | 1017.2 |
| 20260902125341 | 0 | 0.0 | 0.0 | 0.00 | 0.00 | 0.00 | 1017.1 | ||
| 20260902124837 | 0 | 0.0 | 0.0 | 0.00 | 0.00 | 0.00 | 1017.0 | ||
| 20260902124332 | 0 | 0.0 | 0.0 | 0.00 | 0.00 | 0.00 | 1017.1 | ||
| 20260902123827 | 0 | 0.0 | 0.0 | 0.00 | 0.00 | 0.00 | 1017.0 | ||
| 20260902123324 | 0 | 0.0 | 0.0 | 0.00 | 0.00 | 0.00 | 1016.8 | ||
| 20260902122822 | 0 | 0.0 | 0.0 | 0.00 | 0.00 | 0.00 | 1016.7 | ||
| 20260902122318 | 0 | 0.0 | 0.0 | 0.00 | 0.00 | 0.00 | 1017.0 | ||
| 20260902121818 | 73 | 221 | 1.7 | 1.7 | 0.00 | 0.00 | 0.00 | 96 | 1017.1 |
| 20260902121313 | 73 | 221 | 1.7 | 1.7 | 0.00 | 0.00 | 0.00 | 96 | 1017.1 |
| 20260902120808 | 73 | 221 | 1.7 | 1.7 | 0.00 | 0.00 | 0.00 | 96 | 1017.2 |
| 20260902120305 | 73 | 221 | 1.7 | 1.7 | 0.00 | 0.00 | 0.00 | 96 | 1017.0 |
| 20260902115805 | 73 | 221 | 1.7 | 1.7 | 0.00 | 0.00 | 0.00 | 96 | 1017.0 |
| 20260902115306 | 73 | 221 | 1.7 | 1.7 | 0.00 | 0.00 | 0.00 | 96 | 1017.0 |
| 20260902114758 | 73 | 221 | 1.7 | 1.7 | 0.00 | 0.00 | 0.00 | 96 | 1017.0 |
| 20260902114254 | 73 | 221 | 1.7 | 1.7 | 0.00 | 0.00 | 0.00 | 96 | 1016.8 |
| 20260902113754 | 73 | 221 | 1.7 | 1.7 | 0.00 | 0.00 | 0.00 | 96 | 1016.7 |
| 20260902113249 | 73 | 221 | 1.7 | 1.7 | 0.00 | 0.00 | 0.00 | 96 | 1017.1 |
| 20260902112748 | 73 | 221 | 1.7 | 1.7 | 0.00 | 0.00 | 0.00 | 96 | 1016.6 |
| 20260902112246 | 73 | 221 | 1.7 | 1.7 | 0.00 | 0.00 | 0.00 | 96 | 1016.8 |
| 20260902111741 | 73 | 212 | 2.6 | 2.6 | 0.00 | 0.00 | 0.00 | 96 | 1016.5 |
| 20260902111237 | 73 | 212 | 2.6 | 2.6 | 0.00 | 0.00 | 0.00 | 96 | 1016.4 |
| 20260902110732 | 73 | 212 | 2.6 | 2.6 | 0.00 | 0.00 | 0.00 | 96 | 1016.4 |
| 20260902110228 | 73 | 207 | 0.9 | 1.7 | 0.00 | 0.00 | 0.00 | 97 | 1016.4 |
| 20260902105727 | 73 | 205 | 0.9 | 1.7 | 0.00 | 0.00 | 0.00 | 97 | 1016.5 |
| 20260902105223 | 73 | 212 | 2.6 | 2.6 | 0.00 | 0.00 | 0.00 | 97 | 1016.3 |
| 20260902104718 | 73 | 209 | 2.6 | 2.6 | 0.00 | 0.00 | 0.00 | 97 | 1016.1 |
| 20260902104214 | 73 | 209 | 2.6 | 2.6 | 0.00 | 0.00 | 0.00 | 97 | 1016.3 |
| 20260902103713 | 73 | 209 | 2.6 | 2.6 | 0.00 | 0.00 | 0.00 | 97 | 1016.6 |
| 20260902103208 | 73 | 198 | 0.9 | 0.9 | 0.00 | 0.00 | 0.00 | 96 | 1016.3 |
| 20260902102704 | 73 | 198 | 0.9 | 0.9 | 0.00 | 0.00 | 0.00 | 96 | 1016.3 |
| 20260902102201 | 73 | 198 | 0.9 | 0.9 | 0.00 | 0.00 | 0.00 | 96 | 1016.4 |
| 20260902101701 | 73 | 198 | 0.9 | 0.9 | 0.00 | 0.00 | 0.00 | 96 | 1016.4 |
| 20260902101156 | 73 | 198 | 0.9 | 0.9 | 0.00 | 0.00 | 0.00 | 96 | 1016.4 |
| 20260902100650 | 73 | 198 | 0.9 | 0.9 | 0.00 | 0.00 | 0.00 | 96 | 1016.3 |
| 20260902100145 | 73 | 198 | 0.9 | 0.9 | 0.00 | 0.00 | 0.00 | 96 | 1016.3 |
| 20260902095644 | 73 | 198 | 0.9 | 0.9 | 0.00 | 0.00 | 0.00 | 96 | 1016.3 |
| 20260902095143 | 73 | 220 | 0.9 | 0.9 | 0.00 | 0.00 | 0.00 | 96 | 1016.2 |
| 20260902094638 | 73 | 220 | 0.9 | 0.9 | 0.00 | 0.00 | 0.00 | 96 | 1016.3 |
| 20260902094135 | 73 | 212 | 1.7 | 1.7 | 0.00 | 0.00 | 0.00 | 96 | 1016.5 |
| 20260902093634 | 73 | 167 | 1.7 | 1.7 | 0.00 | 0.00 | 0.00 | 96 | 1016.1 |
| 20260902093129 | 74 | 213 | 0.9 | 1.7 | 0.00 | 0.00 | 0.00 | 96 | 1016.3 |
| 20260902092624 | 74 | 213 | 0.9 | 1.7 | 0.00 | 0.00 | 0.00 | 96 | 1016.1 |
| 20260902092120 | 74 | 213 | 0.9 | 1.7 | 0.00 | 0.00 | 0.00 | 96 | 1016.5 |
| 20260902091614 | 74 | 213 | 0.9 | 1.7 | 0.00 | 0.00 | 0.00 | 96 | 1016.2 |
| 20260902091111 | 74 | 213 | 0.9 | 1.7 | 0.00 | 0.00 | 0.00 | 96 | 1016.2 |
| 20260902090607 | 74 | 213 | 0.9 | 1.7 | 0.00 | 0.00 | 0.00 | 96 | 1016.3 |
| 20260902090105 | 74 | 215 | 1.7 | 1.7 | 0.00 | 0.00 | 0.00 | 95 | 1016.4 |
| 20260902085600 | 74 | 211 | 0.9 | 0.9 | 0.00 | 0.00 | 0.00 | 95 | 1016.2 |
| 20260902085055 | 74 | 211 | 0.9 | 1.7 | 0.00 | 0.00 | 0.00 | 95 | 1016.2 |
| 20260902084551 | 74 | 205 | 0.9 | 1.7 | 0.00 | 0.00 | 0.00 | 95 | 1016.1 |
| 20260902084047 | 74 | 213 | 0.0 | 0.9 | 0.00 | 0.00 | 0.00 | 95 | 1016.4 |
| 20260902083536 | 74 | 218 | 0.9 | 0.9 | 0.00 | 0.00 | 0.00 | 95 | 1016.3 |
| 20260902083036 | 74 | 209 | 0.9 | 0.9 | 0.00 | 0.00 | 0.00 | 95 | 1016.2 |
| 20260902082532 | 75 | 214 | 0.9 | 0.9 | 0.00 | 0.00 | 0.00 | 95 | 1016.1 |
| 20260902082028 | 75 | 219 | 0.9 | 0.9 | 0.00 | 0.00 | 0.00 | 95 | 1016.0 |
| 20260902081524 | 75 | 218 | 0.0 | 0.9 | 0.00 | 0.00 | 0.00 | 94 | 1016.1 |
| 20260902081024 | 75 | 216 | 0.9 | 0.9 | 0.00 | 0.00 | 0.00 | 94 | 1016.2 |
| 20260902080519 | 75 | 213 | 0.9 | 0.9 | 0.00 | 0.00 | 0.00 | 94 | 1016.0 |
| 20260902080016 | 75 | 213 | 0.9 | 0.9 | 0.00 | 0.00 | 0.00 | 94 | 1015.9 |
| 20260902075510 | 75 | 215 | 0.0 | 0.9 | 0.00 | 0.00 | 0.00 | 94 | 1015.9 |
| 20260902075006 | 75 | 220 | 0.0 | 0.0 | 0.00 | 0.00 | 0.00 | 94 | 1015.9 |
| 20260902074501 | 75 | 217 | 0.0 | 0.9 | 0.00 | 0.00 | 0.00 | 93 | 1016.1 |
| 20260902073955 | 0 | 0.0 | 0.0 | 0.00 | 0.00 | 0.00 | 1016.0 | ||
| 20260902073452 | 0 | 0.0 | 0.0 | 0.00 | 0.00 | 0.00 | 1015.9 | ||
| 20260902072948 | 0 | 0.0 | 0.0 | 0.00 | 0.00 | 0.00 | 1016.1 | ||
| 20260902072444 | 0 | 0.0 | 0.0 | 0.00 | 0.00 | 0.00 | 1015.9 | ||
| 20260902071940 | 0 | 0.0 | 0.0 | 0.00 | 0.00 | 0.00 | 1016.1 | ||
| 20260902071439 | 0 | 0.0 | 0.0 | 0.00 | 0.00 | 0.00 | 1015.9 | ||
| 20260902070935 | 0 | 0.0 | 0.0 | 0.00 | 0.00 | 0.00 | 1016.1 | ||
| 20260902070431 | 0 | 0.0 | 0.0 | 0.00 | 0.00 | 0.00 | 1015.9 | ||
| 20260902065929 | 0 | 0.0 | 0.0 | 0.00 | 0.00 | 0.00 | 1016.1 | ||
| 20260902065425 | 0 | 0.0 | 0.0 | 0.00 | 0.00 | 0.00 | 1016.0 | ||
| 20260902064921 | 0 | 0.0 | 0.0 | 0.00 | 0.00 | 0.00 | 1016.0 | ||
| 20260902064416 | 79 | 233 | 1.7 | 1.7 | 0.00 | 0.00 | 0.00 | 85 | 1015.9 |
| 20260902063911 | 79 | 233 | 1.7 | 1.7 | 0.00 | 0.00 | 0.00 | 85 | 1016.0 |
| 20260902063411 | 79 | 233 | 1.7 | 1.7 | 0.00 | 0.00 | 0.00 | 85 | 1016.1 |
| 20260902062906 | 79 | 233 | 1.7 | 1.7 | 0.00 | 0.00 | 0.00 | 85 | 1016.3 |
| 20260902062405 | 79 | 233 | 1.7 | 1.7 | 0.00 | 0.00 | 0.00 | 85 | 1016.2 |
| 20260902061905 | 79 | 233 | 1.7 | 1.7 | 0.00 | 0.00 | 0.00 | 85 | 1016.1 |
| 20260902061401 | 79 | 233 | 1.7 | 1.7 | 0.00 | 0.00 | 0.00 | 85 | 1016.2 |
| 20260902060857 | 79 | 233 | 1.7 | 1.7 | 0.00 | 0.00 | 0.00 | 85 | 1016.2 |
| 20260902060352 | 79 | 233 | 1.7 | 1.7 | 0.00 | 0.00 | 0.00 | 85 | 1016.2 |
| 20260902055848 | 79 | 233 | 1.7 | 1.7 | 0.00 | 0.00 | 0.00 | 85 | 1016.1 |
| 20260902055343 | 79 | 233 | 1.7 | 1.7 | 0.00 | 0.00 | 0.00 | 85 | 1016.2 |
| 20260902054839 | 79 | 233 | 1.7 | 1.7 | 0.00 | 0.00 | 0.00 | 85 | 1016.3 |
| 20260902054335 | 79 | 213 | 0.9 | 1.7 | 0.00 | 0.00 | 0.00 | 85 | 1016.1 |
| 20260902053830 | 79 | 223 | 2.6 | 2.6 | 0.00 | 0.00 | 0.00 | 85 | 1016.0 |
| 20260902053325 | 80 | 223 | 0.9 | 1.7 | 0.00 | 0.00 | 0.00 | 84 | 1016.0 |
| 20260902052824 | 80 | 221 | 0.9 | 1.7 | 0.00 | 0.00 | 0.00 | 84 | 1016.1 |
| 20260902052320 | 80 | 230 | 1.7 | 4.3 | 0.00 | 0.00 | 0.00 | 84 | 1015.9 |